Cahokia, IL

12:50 PM CST on February 18, 2018 (GMT -0600)
Saint Louis Downtown

Weather History for KCPS - December, 2013

Change the Weather History Date:

Saturday, December 21, 2013

  Actual Average Record
Temperature  
Mean Temperature 35 °F -  
Max Temperature 37 °F 59 °F 68 °F (1967)
Min Temperature 33 °F 29 °F -1 °F (1963)
Degree Days  
Heating Degree Days 30    
Moisture  
Dew Point 33 °F    
Average Humidity 96    
Maximum Humidity 100    
Minimum Humidity 92    
Precipitation  
Precipitation 0.84 in - - ()
Sea Level Pressure  
Sea Level Pressure 29.75 in    
Wind  
Wind Speed 8 mph (North)    
Max Wind Speed 12 mph    
Max Gust Speed -    
Visibility 8 miles    
Events Rain    
Averages and records for this station are not official NWS values.
T = Trace of Precipitation, MM = Missing Value Source: NWS Daily Summary

Daily Weather History Graph

Daily Weather History Graph

Search for Another Location

Airport or City:

Trip Planner

Search our weather history database for the weather conditions in past years. The results will help you decide how hot, cold, wet, or windy it might be!

Date:

Astronomy

Dec. 21, 2013 Rise Set
Actual Time 7:14 AM CST 4:43 PM CST
Civil Twilight 6:44 AM CST 5:12 PM CST
Nautical Twilight 6:11 AM CST 5:46 PM CST
Astronomical Twilight 5:39 AM CST 6:18 PM CST
Moon 8:56 PM CST (12/21) 9:43 AM CST (12/21)
Length of Visible Light 10h 27m
Length of Day
9h 28m
Waning Gibbous, 84% of the Moon is Illuminated
Dec 21
Waning Gibbous
Dec 25
Last Quarter
Jan 1
New
Jan 7
First Quarter
Jan 15
Full

Hourly Weather History & Observations

Time (CST) Temp. Windchill Dew Point Humidity Pressure Visibility Wind Dir Wind Speed Gust Speed Precip Events Conditions
12:53 AM 37.0 °F 32.4 °F 35.1 °F 93% 29.82 in 8.0 mi North 5.8 mph - 0.00 in Rain Light Rain
1:53 AM 36.0 °F 31.1 °F 35.1 °F 97% 29.83 in 6.0 mi North 5.8 mph - 0.03 in Rain Light Rain
2:11 AM 35.6 °F 29.9 °F 35.6 °F 100% 29.82 in 9.0 mi North 6.9 mph - 0.01 in   Overcast
2:14 AM 35.6 °F 29.2 °F 35.6 °F 100% 29.82 in 9.0 mi North 8.1 mph - 0.01 in   Overcast
2:23 AM 35.6 °F 29.2 °F 33.8 °F 93% 29.81 in 10.0 mi North 8.1 mph - 0.01 in   Overcast
2:40 AM 35.6 °F 30.7 °F 35.6 °F 100% 29.83 in 6.0 mi North 5.8 mph - 0.02 in Rain Rain
2:53 AM 36.0 °F 31.1 °F 35.1 °F 97% 29.82 in 4.0 mi North 5.8 mph - 0.07 in Rain Rain
3:23 AM 35.6 °F 29.2 °F 35.6 °F 100% 29.80 in 6.0 mi North 8.1 mph - 0.04 in Rain Light Rain
3:40 AM 35.6 °F 28.6 °F 33.8 °F 93% 29.81 in 6.0 mi North 9.2 mph - 0.06 in Rain Light Rain
3:53 AM 35.1 °F 29.3 °F 34.0 °F 96% 29.83 in 6.0 mi NW 6.9 mph - 0.07 in Rain Light Rain
4:53 AM 35.1 °F 29.3 °F 35.1 °F 100% 29.80 in 6.0 mi NNE 6.9 mph - 0.06 in Rain Light Rain
5:37 AM 35.6 °F 28.0 °F 33.8 °F 93% 29.78 in 7.0 mi NNE 10.4 mph - 0.06 in Rain Light Rain
5:48 AM 35.6 °F 28.0 °F 33.8 °F 93% 29.77 in 10.0 mi NNE 10.4 mph - 0.06 in Rain Light Rain
5:53 AM 35.1 °F 26.9 °F 34.0 °F 96% 29.77 in 10.0 mi NNE 11.5 mph - 0.07 in Rain Light Rain
6:45 AM 33.8 °F 28.6 °F 33.8 °F 100% 29.79 in 10.0 mi NNE 5.8 mph - 0.00 in Rain Light Rain
6:53 AM 34.0 °F 28.8 °F 33.1 °F 96% 29.80 in 10.0 mi NNE 5.8 mph - 0.00 in Rain Light Rain
7:53 AM 34.0 °F 26.6 °F 33.1 °F 96% 29.82 in 10.0 mi North 9.2 mph - 0.00 in   Overcast
8:53 AM 34.0 °F 27.2 °F 33.1 °F 96% 29.82 in 8.0 mi North 8.1 mph - 0.04 in Rain Light Rain
9:53 AM 33.1 °F 26.9 °F 33.1 °F 100% 29.83 in 3.0 mi NNE 6.9 mph - 0.09 in Rain Rain
10:53 AM 33.1 °F 27.7 °F 33.1 °F 100% 29.80 in 4.0 mi NNE 5.8 mph - 0.08 in Rain Light Rain
11:53 AM 34.0 °F 28.0 °F 33.1 °F 96% 29.77 in 7.0 mi North 6.9 mph - 0.07 in Rain Light Rain
12:53 PM 34.0 °F 25.5 °F 33.1 °F 96% 29.69 in 10.0 mi NNE 11.5 mph - 0.01 in Rain Light Rain
1:53 PM 34.0 °F 25.5 °F 33.1 °F 96% 29.67 in 3.0 mi North 11.5 mph - 0.02 in Rain Light Rain
2:53 PM 33.1 °F 24.4 °F 33.1 °F 100% 29.66 in 5.0 mi North 11.5 mph - 0.08 in Rain Light Rain
3:53 PM 33.1 °F 24.9 °F 32.0 °F 96% 29.70 in 7.0 mi North 10.4 mph - 0.05 in Rain Light Rain
4:24 PM 33.8 °F 25.8 °F 32.0 °F 93% 29.68 in 4.0 mi North 10.4 mph - 0.06 in Rain Light Rain
4:35 PM 33.8 °F 25.8 °F 32.0 °F 93% 29.67 in 6.0 mi North 10.4 mph - 0.07 in Rain Light Rain
4:53 PM 33.1 °F 24.9 °F 32.0 °F 96% 29.67 in 8.0 mi North 10.4 mph - 0.08 in Rain Light Rain
5:53 PM 33.1 °F 24.9 °F 32.0 °F 96% 29.65 in 10.0 mi North 10.4 mph - 0.02 in Rain Light Rain
6:53 PM 33.1 °F 25.5 °F 32.0 °F 96% 29.67 in 9.0 mi NNW 9.2 mph - 0.00 in Rain Light Rain
7:53 PM 33.1 °F 24.4 °F 32.0 °F 96% 29.64 in 10.0 mi NW 11.5 mph - 0.00 in   Overcast
8:53 PM 33.1 °F 24.9 °F 32.0 °F 96% 29.62 in 10.0 mi NNW 10.4 mph - N/A   Overcast
9:53 PM 33.1 °F 26.1 °F 32.0 °F 96% 29.60 in 10.0 mi North 8.1 mph - N/A   Overcast
10:53 PM 34.0 °F 26.6 °F 32.0 °F 92% 29.67 in 10.0 mi WNW 9.2 mph - N/A   Overcast
11:53 PM 33.1 °F 26.1 °F 33.1 °F 100% 29.65 in 7.0 mi NW 8.1 mph - N/A   Overcast